{"data":{"norad_id":51720,"epoch":"2026-05-24T19:52:39.622368Z","epoch_age_seconds":90181,"freshness":"FRESH","line1":"1 51720U 22016G   26144.82823637  .00000092  00000+0  23890-4 0  9998","line2":"2 51720  53.2151 347.2916 0001408  92.2135 267.9018 15.08846177234910","mean_motion":15.08846177,"eccentricity":0.0001408,"inclination_deg":53.2151,"raan_deg":347.2916,"arg_perigee_deg":92.2135,"mean_anomaly_deg":267.9018,"bstar":2.389e-5,"rev_number":23491,"period_min":95.437163970095,"perigee_km":538.75047351028,"apogee_km":540.69854331105,"semimajor_km":6917.8615084107,"source":"CELESTRAK","updated_at":"2026-05-25T13:38:16.920922Z"}}